Location: Anna Drive-In (historical)
(37.4631°N, 89.2233°W)
Time: 04:28:36
(UTC+00:00)

Daily predictions for brighter satellites

Satellite Brightness Start Highest point End
(mag) Time Altitude Azimuth Time Altitude Azimuth Time Altitude Azimuth
STARLINK-21 3.9 00:00:02 10° SSW 00:03:53 47° SE 00:07:46 10° ENE
CZ-4 R/B 1.8 00:00:12 10° SE 00:04:13 45° ENE 00:08:14 10° N
STARLINK-62 3.3 00:01:42 10° SW 00:05:11 64° SE 00:08:43 10° NE
STARLINK-45 3.7 00:01:47 10° SSW 00:05:43 56° SE 00:09:39 10° NE
STARLINK-34 3.2 00:03:18 10° SW 00:06:48 67° SE 00:10:20 10° NE
STARLINK-42 3.0 00:03:40 10° SW 00:06:56 87° NW 00:10:14 10° NE
STARLINK-70 3.7 00:03:22 10° SSW 00:07:18 55° SE 00:11:14 10° NE
STARLINK-76 3.8 00:04:55 10° SSW 00:08:50 54° SE 00:12:46 10° ENE
Cosmos 1943 Rocket 3.1 00:04:58 10° SSE 00:09:37 27° ESE 00:14:15 10° NE
STARLINK-23 3.7 00:06:34 10° SSW 00:10:29 56° SE 00:14:26 10° NE
USA 116 4.1 00:06:50 10° NNE 00:10:36 48° E 00:14:49 10° S
Cosmos 1805 Rocket 3.6 00:06:37 10° S 00:10:57 62° E 00:15:16 10° NNE
Cosmos 1939 Rocket 3.6 00:07:24 10° SE 00:11:06 33° ENE 00:14:50 10° N
Cosmos 2100 Rocket 4.2 00:05:33 10° S 00:11:55 84° W 00:18:18 10° N
STARLINK-32 3.7 00:08:12 10° SSW 00:12:09 58° SE 00:16:06 10° NE
Cosmos 1812 4.3 00:10:29 10° NE 00:12:52 16° ENE 00:15:14 10° ESE
STARLINK-40 3.6 00:09:49 10° SW 00:13:46 60° SE 00:17:44 10° NE
Sich 1 3.3 00:09:45 10° SSE 00:13:51 45° E 00:17:58 10° NNE
OE (NEXTSAT) 4.4 00:11:40 10° WSW 00:15:08 82° NNW 00:18:39 10° ENE
STARLINK-44 3.6 00:11:29 10° SW 00:15:26 63° SE 00:19:26 10° NE
COSMO-SKYMED 1 2.9 00:11:08 10° N 00:15:28 72° WNW 00:19:47 10° SSW
Lacrosse 5 rocket 4.0 00:14:15 10° WNW 00:16:47 15° NNW 00:19:22 10° N
STARLINK-37 3.5 00:13:12 10° SW 00:17:12 70° SE 00:21:12 10° NE
STARLINK-36 3.6 00:14:44 10° SW 00:18:43 68° SE 00:22:43 10° NE
Cosmos 2297 3.8 00:14:51 10° SSW 00:20:32 84° WNW 00:26:13 10° NNE
STARLINK-68 3.5 00:16:33 10° SW 00:20:33 78° SE 00:24:34 10° NE
Envisat 4.4 00:17:07 10° S 00:21:56 44° W 00:26:48 10° NNW
STARLINK-63 3.5 00:18:07 10° SW 00:22:07 78° SE 00:26:09 10° NE
STARLINK-35 3.5 00:19:41 10° SW 00:23:41 76° SE 00:27:41 10° NE
Cosmos 1707 Rocket 4.1 00:20:01 10° N 00:24:10 37° ENE 00:28:18 10° SSE
STARLINK-51 3.5 00:21:21 10° SW 00:25:21 79° SE 00:29:18 11° NE
Cosmos 2061 Rocket 4.1 00:19:06 10° S 00:25:31 81° E 00:31:57 10° N
STARLINK-1023 3.1 00:22:58 10° SSW 00:25:49 45° SE 00:27:59 15° ENE
Cosmos 1459 Rocket 4.3 00:20:12 10° SSW 00:26:13 69° W 00:32:15 10° N
STARLINK-30 3.5 00:22:59 10° SW 00:26:59 82° SE 00:30:52 11° NE
STARLINK-72 3.5 00:24:38 10° SW 00:28:39 85° SE 00:32:28 11° NE
STARLINK-50 3.5 00:26:17 10° SW 00:30:18 88° SE 00:34:03 12° NE
STARLINK-1007 3.0 00:27:40 10° SSW 00:30:36 52° SE 00:32:41 17° ENE
STARLINK-59 3.5 00:28:00 10° SW 00:32:01 85° NW 00:35:45 12° NE
Cosmos 1607 4.5 00:26:33 10° NNW 00:32:25 39° NE 00:38:19 10° ESE
STARLINK-56 3.5 00:29:34 10° SW 00:33:35 86° NW 00:37:13 12° NE
STARLINK-64 3.9 00:31:35 10° WSW 00:35:05 54° NW 00:38:25 11° NE
STARLINK-73 3.6 00:31:13 10° SW 00:35:14 83° NW 00:38:49 13° NE
SL-27 R/B 4.5 00:33:45 10° NNE 00:34:27 12° NE 00:34:27 12° NE
Cosmos 1725 Rocket 3.9 00:30:09 10° S 00:36:18 76° E 00:42:29 10° N
STARLINK-38 3.6 00:32:54 10° SW 00:36:55 80° NW 00:40:26 13° NE
Cosmos 2369 Rocket 2.7 00:31:52 10° S 00:36:59 37° ESE 00:42:09 10° NE
STARLINK-1010 2.8 00:34:53 10° SW 00:37:54 66° SE 00:39:45 21° ENE
STARLINK-65 3.6 00:34:33 10° SW 00:38:34 78° NW 00:42:00 14° NE
STARLINK-53 3.7 00:36:19 10° SW 00:40:19 71° NW 00:43:44 14° NE
Cosmos 1238 Rocket 4.3 00:36:07 10° SSW 00:41:59 73° W 00:48:34 10° N
STARLINK-1008 2.7 00:39:11 10° SW 00:42:16 75° SE 00:44:01 23° NE
STARLINK-1016 2.7 00:40:21 10° SW 00:43:25 78° SE 00:45:06 24° NE
STARLINK-1025 2.7 00:40:54 10° SW 00:44:00 79° SE 00:45:41 24° NE
STARLINK-1017 2.7 00:41:46 10° SW 00:44:51 81° SE 00:46:30 25° NE
STARLINK-1029 3.0 00:42:54 10° SSW 00:45:59 55° SE 00:47:18 29° ENE
STARLINK 1040 2.7 00:43:53 10° SW 00:46:41 72° NW 00:48:06 26° NE
STARLINK-1028 2.7 00:44:14 10° SW 00:47:20 87° SSE 00:48:55 26° NE
STARLINK-1048 2.7 00:44:22 10° SW 00:47:29 87° SE 00:49:04 26° NE
Abrixas rocket 2.0 00:44:54 10° NW 00:47:49 55° NNE 00:48:44 35° E
Cosmos 2346 Rocket 4.4 00:41:51 10° N 00:48:08 83° E 00:54:18 10° S
STARLINK-1021 2.8 00:45:11 10° SW 00:48:17 89° SSE 00:49:50 27° NE
STARLINK-1049 2.7 00:45:17 10° SW 00:48:23 89° ESE 00:49:55 27° NE
Cosmos 2082 Rocket 3.2 00:42:59 10° NNW 00:48:24 49° WSW 00:53:49 10° S
STARLINK-1019 2.8 00:46:09 10° SW 00:49:16 88° NW 00:50:46 28° NE
STARLINK-1051 2.8 00:46:13 10° SW 00:49:19 89° NW 00:50:50 28° NE
Meteor 1-27 Rocket 3.9 00:44:52 10° N 00:50:13 48° ENE 00:55:38 10° SSE
STARLINK-1012 2.8 00:47:09 10° SW 00:50:15 86° NW 00:51:45 28° NE
CZ-2C R/B 4.3 00:47:59 19° ESE 00:50:34 26° ENE 00:55:13 10° NNE
H-2A R/B 3.0 00:47:32 17° ESE 00:50:36 28° ENE 00:55:08 10° N
FALCON 9 R/B 4.0 00:24:56 10° W 00:51:36 72° SSW 00:57:02 18° ESE
STARLINK-1026 2.8 00:49:06 10° SW 00:52:13 82° NW 00:53:38 30° NE
STARLINK-1013 2.9 00:50:07 10° SW 00:53:14 80° NW 00:54:37 30° NE
Tsikada Rocket 4.0 00:46:59 10° N 00:53:22 73° E 00:59:46 10° SSE
STARLINK-1009 2.9 00:51:08 10° SW 00:54:14 78° NW 00:55:35 31° NE
Cosmos 1354 Rocket 4.3 00:49:03 10° NNW 00:54:20 72° WSW 00:59:34 10° S
YAOGAN 1 3.2 00:50:09 10° S 00:54:25 59° W 00:58:41 10° NNW
STARLINK-1068 4.5 00:51:24 10° SSW 00:55:01 30° SE 00:55:46 28° ESE
STARLINK-1015 2.9 00:52:05 10° SW 00:55:14 76° NW 00:56:35 31° NE
NOSS 3-1 (C) 3.2 00:50:41 10° SSW 00:56:01 86° WNW 01:02:07 10° NNE
Cosmos 921 Rocket 3.0 00:51:34 10° S 00:56:01 72° ESE 01:00:32 10° NNE
IRS-1A Rocket 4.5 00:51:57 10° SE 00:57:12 45° ENE 01:02:25 10° N
STARLINK-1035 4.2 00:55:56 10° SSW 00:59:54 40° SE 01:00:55 34° E
STARLINK-1060 4.1 01:01:09 10° SSW 01:04:58 38° SE 01:05:22 36° ESE
USA 267 3.4 01:01:03 21° ENE 01:05:19 50° SE 01:11:37 10° SSW
Ariane Rocket 3.0 01:00:26 10° SSE 01:05:24 58° ENE 01:10:25 10° N
Cosmos 1633 Rocket 3.1 01:01:14 10° S 01:05:33 77° W 01:09:54 10° N
Lacrosse 4 Rocket 3.7 01:03:37 10° WSW 01:07:01 24° NW 01:10:30 10° N
Cosmos 1666 Rocket 4.2 01:03:27 10° SSW 01:07:51 58° W 01:12:17 10° N
STARLINK-1047 4.0 01:04:07 10° SSW 01:08:02 42° SE 01:08:27 41° ESE
Cosmos 1933 Rocket 3.9 01:04:24 10° SSE 01:08:33 40° E 01:08:58 39° ENE
SJ-11-01 4.3 01:04:11 10° SSE 01:08:46 57° ENE 01:13:20 10° N
STARLINK-1031 3.8 01:05:01 10° SSW 01:08:47 45° SE 01:09:06 44° ESE
STARLINK-1030 4.0 01:05:59 10° SSW 01:09:53 42° SE 01:10:07 41° ESE
STARLINK-1027 3.8 01:06:18 10° SSW 01:10:27 55° SE 01:11:15 46° E
STARLINK-1020 3.9 01:10:54 10° SSW 01:14:52 47° SE 01:14:56 47° SE
SL-4 R/B 2.3 01:10:48 10° NW 01:15:27 59° NE 01:16:18 49° E
STARLINK-1052 3.8 01:15:47 10° SSW 01:19:41 52° SE 01:19:41 52° SE
ARGOS 3.4 01:18:56 40° ESE 01:20:00 45° ENE 01:25:09 10° N
NOSS 2-3 (E) 3.4 01:23:36 10° SSW 01:27:47 79° ESE 01:28:27 63° NE
Meteor 1-25 Rocket 4.3 01:22:37 10° SSE 01:28:10 51° E 01:33:39 10° NNE
STARLINK-1033 3.8 01:25:37 10° SW 01:29:13 59° S 01:29:13 59° S
Cosmos 2233 Rocket 4.4 01:25:08 10° SSW 01:31:10 61° W 01:37:17 10° N
Cosmos 1346 Rocket 3.8 01:32:27 10° S 01:34:54 36° S 01:34:54 36° S
Cosmos 1340 3.0 01:34:16 10° SSW 01:37:53 62° W 01:37:53 62° W
STARLINK-1024 4.0 01:35:34 10° SW 01:38:51 55° SSW 01:38:51 55° SSW
BREEZE-M DEB (TANK) 4.3 01:36:49 10° NW 01:40:01 44° NNE 01:40:01 44° NNE
Cosmos 1072 Rocket 4.4 01:34:54 10° S 01:41:13 66° E 01:47:31 10° NNE
NOSS 2-3 (D) 3.5 01:38:20 10° SW 01:42:29 79° WNW 01:42:29 79° WNW
H-2A R/B 3.8 01:03:10 10° WSW 01:42:38 43° S 01:45:21 33° SE
Hubble Space Telescope 3.4 01:41:17 10° SSW 01:41:36 11° S 01:41:36 11° S
Cosmos 1470 Rocket 4.5 01:43:35 10° SSW 01:47:44 46° W 01:51:57 10° N
NOSS 3-1 (A) 3.8 01:45:47 10° SW 01:51:04 54° NW 01:54:38 24° NNE
Cosmos 1943 Rocket 3.5 01:48:01 10° SW 01:53:09 37° WNW 01:58:18 10° N
Meteor 1-22 4.5 01:48:32 10° S 01:53:54 85° W 01:59:16 10° N
Cosmos 1513 Rocket 4.2 01:53:59 10° S 02:00:02 85° E 02:06:10 10° N
Cosmos 1891 Rocket 4.4 02:01:23 10° S 02:07:29 82° W 02:13:45 10° N
Cosmos 2369 Rocket 4.0 02:16:13 10° WSW 02:21:02 29° WNW 02:25:55 10° N
H-2A R/B 3.6 02:28:08 27° SW 02:29:50 34° W 02:34:42 10° NNW
CZ-2C R/B 4.3 02:29:01 40° SW 02:30:05 44° W 02:35:38 10° NNW
USA 267 4.0 02:48:25 46° NW 02:48:25 46° NW 02:54:23 10° WSW
SL-16 R/B 4.5 09:20:43 18° NE 09:20:43 18° NE 09:22:09 10° NNE
Lacrosse 5 4.3 09:33:43 17° NE 09:33:43 17° NE 09:36:17 10° ENE
USA 267 4.0 09:28:32 10° SE 09:32:53 45° ESE 09:32:53 45° ESE
CZ-2C R/B 4.1 09:45:33 10° NNE 09:48:21 30° NE 09:48:21 30° NE
GEOS 3 Rocket 3.8 10:12:24 10° NE 10:17:44 70° ESE 10:17:53 70° SE
Cosmos 1605 Rocket 4.0 10:13:32 10° N 10:19:45 74° E 10:25:51 10° SSE
NOSS 3-1 (C) 4.1 10:21:24 59° WSW 10:21:52 60° WSW 10:30:27 10° SSE
H-2A R/B 2.8 10:27:56 10° NNE 10:32:22 70° ESE 10:32:36 68° SE
Cosmos 614 Rocket 4.1 10:36:07 32° S 10:38:32 72° ESE 10:43:42 10° NNE
Cosmos 1743 Rocket 4.2 10:36:49 10° N 10:41:03 53° E 10:45:16 10° SSE
Cosmos 1727 Rocket 3.9 10:36:39 10° S 10:42:50 89° E 10:49:03 10° N
Cosmos 1943 Rocket 2.3 10:41:54 10° NNW 10:47:25 70° ENE 10:52:53 10° SSE
Cosmos 1339 Rocket 4.5 10:48:30 49° W 10:49:10 51° W 10:55:06 10° N
Cosmos 1842 Rocket 3.8 10:50:57 54° NNW 10:50:57 54° NNW 10:54:38 10° N
CZ-4B R/B 4.0 10:47:45 10° N 10:51:55 65° WNW 10:51:55 65° WNW
Meteor PRIRODA 3.7 10:49:34 10° NNE 10:53:16 74° ESE 10:54:36 37° S
Cosmos 292 Rocket 4.4 10:57:52 36° SSW 10:57:52 36° SSW 11:01:01 10° S
SJ-12 4.4 10:55:13 10° NNE 10:59:19 60° E 11:03:24 10° S
BREEZE M DEB (TANK) 3.4 10:50:11 16° NW 10:59:49 80° SW 11:03:32 10° SE
SL-16 R/B 3.8 11:02:37 18° NW 11:02:37 18° NW 11:05:10 10° N
BREEZE-M DEB (TANK) 3.8 10:53:56 15° SW 11:01:06 66° SE 11:04:17 10° ENE
Cosmos 921 Rocket 4.2 10:59:51 10° N 11:04:05 43° ENE 11:08:12 10° SE
STARLINK-1098 3.4 11:06:18 55° WSW 11:07:03 73° NW 11:11:06 10° NE
COSMO-SKYMED 1 2.9 11:03:44 10° SSE 11:08:02 68° ENE 11:12:22 10° N
FENGYUN 3A 3.8 11:04:27 10° NNE 11:09:56 78° ESE 11:15:21 10° S
Cosmos 2100 Rocket 4.2 11:04:20 10° N 11:10:33 75° E 11:16:41 10° SSE
Cosmos 2221 2.6 11:10:12 39° WSW 11:11:13 47° W 11:15:23 10° N
STARLINK-1123 3.5 11:10:50 48° W 11:11:46 66° NW 11:15:48 10° NE
Cosmos 1000 Rocket 4.5 11:07:39 10° S 11:13:48 84° E 11:20:02 10° N
Lacrosse 5 1.9 11:12:57 20° NW 11:16:31 82° NE 11:21:35 10° SE
Cosmos 2369 Rocket 2.1 11:11:01 10° NNW 11:16:46 85° WSW 11:22:27 10° SSE
STARLINK-1097 3.6 11:15:38 41° W 11:16:46 60° NW 11:20:47 10° NE
Cosmos 1603 3.9 11:13:30 21° SW 11:17:04 49° WNW 11:22:37 10° NNE
USA 267 4.1 11:12:49 10° S 11:18:17 28° SW 11:20:16 24° W
Cosmos 1484 Rocket 3.1 11:16:55 10° N 11:20:41 43° WNW 11:23:22 18° SW
STARLINK-1099 3.7 11:20:11 36° W 11:21:30 54° NW 11:25:29 10° NE
Cosmos 1943 3.2 11:16:15 10° SW 11:21:46 59° WNW 11:27:20 10° NNE
Cosmos 1459 Rocket 4.0 11:17:07 10° N 11:23:20 86° E 11:29:37 10° S
Cosmos 2061 Rocket 4.5 11:19:23 10° N 11:25:36 63° E 11:31:44 10° SSE
STARLINK-1104 3.8 11:24:31 32° W 11:26:03 50° NW 11:30:00 10° NE
CZ-2C R/B 3.9 11:24:44 10° NNW 11:27:44 19° NW 11:27:44 19° NW
CZ-4B DEB 4.2 11:24:04 10° NNE 11:29:34 90° WNW 11:35:01 10° SSW
Cosmos 1656 Rocket 4.4 11:24:05 10° NNW 11:29:41 55° ENE 11:35:14 10° SE
STARLINK-1144 3.9 11:29:07 28° W 11:30:50 45° NW 11:34:46 10° NE
Cosmos 2263 4.2 11:26:04 10° NNW 11:31:46 89° WSW 11:37:23 10° SSE
MOS 1-B 4.3 11:26:05 10° NNE 11:31:55 81° WNW 11:37:43 10° SSW
Aureole 2 Rocket 2.0 11:29:27 13° NNW 11:32:09 74° WSW 11:35:23 10° SSE
Cosmos 2123 Rocket 4.3 11:26:35 10° S 11:32:51 71° E 11:39:08 10° NNE
ALOS 2.3 11:28:34 10° N 11:33:07 55° WNW 11:37:40 10° SSW
STARLINK-1103 4.1 11:33:53 24° W 11:35:50 41° NW 11:39:42 10° NE
DELTA 2 R/B (1) 3.7 11:32:14 17° WSW 11:36:35 76° SSE 11:42:08 10° ENE
STARLINK-1128 4.1 11:35:21 24° W 11:37:15 39° NW 11:41:02 10° NE
CZ-4B R/B 3.6 11:32:06 10° NNE 11:37:24 66° ESE 11:42:38 10° S
PSLV R/B 4.1 11:35:35 10° N 11:39:06 38° WNW 11:42:39 10° SW
Atlas Centaur 2 4.4 11:32:44 10° SW 11:40:03 33° SSE 11:47:17 10° E
STARLINK-1101 4.2 11:38:30 22° W 11:40:37 38° NW 11:44:27 10° NE
Meteor 2-3 Rocket 4.4 11:36:30 10° NNW 11:41:29 31° W 11:46:29 10° SSW
STARLINK-1113 4.2 11:39:40 21° W 11:41:47 36° NW 11:45:31 10° NNE
STARLINK-1102 4.3 11:43:04 19° W 11:45:25 35° NW 11:49:11 10° NNE
Cosmos 1802 Rocket 4.0 11:39:49 10° N 11:46:16 76° W 11:52:37 10° S
STARLINK-1119 4.4 11:44:06 19° W 11:46:24 34° NW 11:50:05 10° NNE
CZ-4B R/B 4.4 11:45:17 10° NNW 11:46:49 15° NW 11:46:49 15° NW
STARLINK-1111 4.4 11:47:27 17° W 11:50:01 33° NNW 11:53:43 10° NNE
STARLINK-1114 4.5 11:48:42 16° W 11:51:14 31° NNW 11:54:51 10° NNE
